Time,TemperatureF,DewpointF,PressureIn,WindDirection,WindDirectionDegrees,WindSpeedMPH,WindSpeedGustMPH,Humidity,HourlyPrecipIn,Conditions,Clouds,dailyrainin,SolarRadiationWatts/m^2,SoftwareType,DateUTC
2013-04-28 00:03:00,54.0,-99.9,-100.00,East,82,3.0,7.0,94,0.03,,,0.21,0.000000,,2013-04-28 04:03:00,
2013-04-28 00:32:00,54.0,53.0,-100.00,ENE,74,3.0,6.0,96,0.01,,,0.22,0.000000,,2013-04-28 04:32:00,
2013-04-28 00:43:00,54.0,53.0,-100.00,ENE,74,3.0,6.0,96,0.01,,,0.22,0.000000,,2013-04-28 04:43:00,
2013-04-28 00:53:00,54.0,53.0,-100.00,ENE,74,3.0,6.0,96,0.01,,,0.22,0.000000,,2013-04-28 04:53:00,
2013-04-28 01:02:00,54.0,53.0,-100.00,ENE,74,3.0,6.0,96,0.01,,,0.22,0.000000,,2013-04-28 05:02:00,
2013-04-28 01:32:00,54.0,53.0,-100.00,NNW,338,1.0,6.0,97,0.00,,,0.22,0.000000,,2013-04-28 05:32:00,
2013-04-28 01:42:00,54.0,53.0,-100.00,NNW,338,1.0,6.0,97,0.00,,,0.22,0.000000,,2013-04-28 05:42:00,
2013-04-28 01:52:00,54.0,53.0,-100.00,NNW,338,1.0,6.0,97,0.00,,,0.22,0.000000,,2013-04-28 05:52:00,
2013-04-28 02:01:00,54.0,53.0,-100.00,NNW,338,1.0,6.0,97,0.00,,,0.22,0.000000,,2013-04-28 06:01:00,
2013-04-28 02:32:00,54.0,53.0,-100.00,NE,45,2.0,5.0,97,0.00,,,0.22,0.000000,,2013-04-28 06:32:00,
2013-04-28 02:42:00,54.0,53.0,-100.00,NE,45,2.0,5.0,97,0.00,,,0.22,0.000000,,2013-04-28 06:42:00,
2013-04-28 02:52:00,54.0,53.0,-100.00,NE,45,2.0,5.0,97,0.00,,,0.22,0.000000,,2013-04-28 06:52:00,
2013-04-28 03:02:00,54.0,53.0,-100.00,NE,45,2.0,5.0,97,0.00,,,0.22,0.000000,,2013-04-28 07:02:00,
2013-04-28 03:32:00,52.0,51.0,-100.00,West,271,1.0,5.0,97,0.00,,,0.22,0.000000,,2013-04-28 07:32:00,
2013-04-28 03:42:00,52.0,51.0,-100.00,West,271,1.0,5.0,97,0.00,,,0.22,0.000000,,2013-04-28 07:42:00,
2013-04-28 03:52:00,52.0,51.0,-100.00,West,271,1.0,5.0,97,0.00,,,0.22,0.000000,,2013-04-28 07:52:00,
2013-04-28 04:02:00,52.0,51.0,-100.00,West,271,1.0,5.0,97,0.00,,,0.22,0.000000,,2013-04-28 08:02:00,
2013-04-28 04:32:00,56.0,51.0,-100.00,ENE,62,2.0,7.0,83,0.00,,,0.22,0.000000,,2013-04-28 08:32:00,
2013-04-28 04:42:00,56.0,51.0,-100.00,ENE,62,2.0,7.0,83,0.00,,,0.22,0.000000,,2013-04-28 08:42:00,
2013-04-28 04:52:00,56.0,51.0,-100.00,ENE,62,2.0,7.0,83,0.00,,,0.22,0.000000,,2013-04-28 08:52:00,
2013-04-28 05:01:00,56.0,51.0,-100.00,ENE,62,2.0,7.0,83,0.00,,,0.22,0.000000,,2013-04-28 09:01:00,
2013-04-28 05:33:00,54.0,53.0,-100.00,West,259,2.0,5.0,95,0.04,,,0.26,0.000000,,2013-04-28 09:33:00,
2013-04-28 05:42:00,54.0,53.0,-100.00,West,259,2.0,5.0,95,0.04,,,0.26,0.000000,,2013-04-28 09:42:00,
2013-04-28 05:53:00,54.0,53.0,-100.00,West,259,2.0,5.0,95,0.04,,,0.26,0.000000,,2013-04-28 09:53:00,
2013-04-28 06:03:00,54.0,53.0,-100.00,West,259,2.0,5.0,95,0.04,,,0.26,0.000000,,2013-04-28 10:03:00,
2013-04-28 06:32:00,53.0,53.0,-100.00,East,83,2.0,6.0,99,0.16,,,0.42,0.000000,,2013-04-28 10:32:00,
2013-04-28 06:42:00,53.0,53.0,-100.00,East,83,2.0,6.0,99,0.16,,,0.42,0.000000,,2013-04-28 10:42:00,
2013-04-28 06:53:00,53.0,53.0,-100.00,East,83,2.0,6.0,99,0.16,,,0.42,0.000000,,2013-04-28 10:53:00,
2013-04-28 07:02:00,53.0,53.0,-100.00,East,83,2.0,6.0,99,0.16,,,0.42,0.000000,,2013-04-28 11:02:00,
2013-04-28 07:32:00,53.0,53.0,-100.00,WSW,250,0.0,5.0,100,0.19,,,0.61,0.000000,,2013-04-28 11:32:00,
2013-04-28 07:42:00,53.0,53.0,-100.00,WSW,250,0.0,5.0,100,0.19,,,0.61,0.000000,,2013-04-28 11:42:00,
2013-04-28 07:52:00,53.0,53.0,-100.00,WSW,250,0.0,5.0,100,0.19,,,0.61,0.000000,,2013-04-28 11:52:00,
2013-04-28 08:02:00,53.0,53.0,-100.00,WSW,250,0.0,5.0,100,0.19,,,0.61,0.000000,,2013-04-28 12:02:00,
2013-04-28 08:32:00,53.0,53.0,-100.00,SE,139,3.0,6.0,100,0.28,,,0.89,3.000000,,2013-04-28 12:32:00,
2013-04-28 08:42:00,53.0,53.0,-100.00,SE,139,3.0,6.0,100,0.28,,,0.89,3.000000,,2013-04-28 12:42:00,
2013-04-28 08:52:00,53.0,53.0,-100.00,SE,139,3.0,6.0,100,0.28,,,0.89,3.000000,,2013-04-28 12:52:00,
2013-04-28 09:02:00,53.0,53.0,-100.00,SE,139,3.0,6.0,100,0.28,,,0.89,3.000000,,2013-04-28 13:02:00,
2013-04-28 09:32:00,53.0,52.0,-100.00,ESE,102,4.0,17.0,98,0.15,,,1.04,23.000000,,2013-04-28 13:32:00,
2013-04-28 09:42:00,53.0,52.0,-100.00,ESE,102,4.0,17.0,98,0.15,,,1.04,23.000000,,2013-04-28 13:42:00,
2013-04-28 09:52:00,53.0,52.0,-100.00,ESE,102,4.0,17.0,98,0.15,,,1.04,23.000000,,2013-04-28 13:52:00,
2013-04-28 10:02:00,53.0,52.0,-100.00,ESE,102,4.0,17.0,98,0.15,,,1.04,23.000000,,2013-04-28 14:02:00,
2013-04-28 10:32:00,54.0,53.0,-100.00,ENE,70,2.0,11.0,96,0.00,,,1.04,57.000000,,2013-04-28 14:32:00,
2013-04-28 10:42:00,54.0,53.0,-100.00,ENE,70,2.0,11.0,96,0.00,,,1.04,57.000000,,2013-04-28 14:42:00,
2013-04-28 10:52:00,54.0,53.0,-100.00,ENE,70,2.0,11.0,96,0.00,,,1.04,57.000000,,2013-04-28 14:52:00,
2013-04-28 11:02:00,54.0,53.0,-100.00,ENE,70,2.0,11.0,96,0.00,,,1.04,57.000000,,2013-04-28 15:02:00,
2013-04-28 11:33:00,53.0,53.0,-100.00,NE,43,2.0,4.0,100,0.19,,,1.23,27.000000,,2013-04-28 15:33:00,
2013-04-28 11:43:00,53.0,53.0,-100.00,NE,43,2.0,4.0,100,0.19,,,1.23,27.000000,,2013-04-28 15:43:00,
2013-04-28 11:53:00,53.0,53.0,-100.00,NE,43,2.0,4.0,100,0.19,,,1.23,27.000000,,2013-04-28 15:53:00,
2013-04-28 12:03:00,53.0,53.0,-100.00,NE,43,2.0,4.0,100,0.19,,,1.23,27.000000,,2013-04-28 16:03:00,
2013-04-28 12:33:00,53.0,52.0,-100.00,ESE,116,3.0,9.0,98,0.13,,,1.35,63.000000,,2013-04-28 16:33:00,
2013-04-28 12:43:00,53.0,52.0,-100.00,ESE,116,3.0,9.0,98,0.13,,,1.35,63.000000,,2013-04-28 16:43:00,
2013-04-28 12:52:00,53.0,52.0,-100.00,ESE,116,3.0,9.0,98,0.13,,,1.35,63.000000,,2013-04-28 16:52:00,
2013-04-28 13:02:00,53.0,52.0,-100.00,ESE,116,3.0,9.0,98,0.13,,,1.35,63.000000,,2013-04-28 17:02:00,
2013-04-28 13:32:00,54.0,54.0,-100.00,WSW,237,1.0,10.0,99,0.07,,,1.42,80.000000,,2013-04-28 17:32:00,
2013-04-28 13:43:00,54.0,54.0,-100.00,WSW,237,1.0,10.0,99,0.07,,,1.42,80.000000,,2013-04-28 17:43:00,
2013-04-28 13:52:00,54.0,54.0,-100.00,WSW,237,1.0,10.0,99,0.07,,,1.42,80.000000,,2013-04-28 17:52:00,
2013-04-28 14:02:00,54.0,54.0,-100.00,WSW,237,1.0,10.0,99,0.07,,,1.42,80.000000,,2013-04-28 18:02:00,
2013-04-28 14:32:00,55.0,54.0,-100.00,South,182,4.0,12.0,96,0.08,,,1.47,91.000000,,2013-04-28 18:32:00,
2013-04-28 14:42:00,55.0,54.0,-100.00,South,182,4.0,12.0,96,0.08,,,1.47,91.000000,,2013-04-28 18:42:00,
2013-04-28 14:52:00,55.0,54.0,-100.00,South,182,4.0,12.0,96,0.08,,,1.47,91.000000,,2013-04-28 18:52:00,
2013-04-28 15:02:00,55.0,54.0,-100.00,South,182,4.0,12.0,96,0.08,,,1.47,91.000000,,2013-04-28 19:02:00,
2013-04-28 15:32:00,57.0,55.0,-100.00,South,176,4.0,24.0,92,0.03,,,1.49,125.000000,,2013-04-28 19:32:00,
2013-04-28 15:42:00,57.0,55.0,-100.00,South,176,4.0,24.0,92,0.03,,,1.49,125.000000,,2013-04-28 19:42:00,
2013-04-28 15:52:00,57.0,55.0,-100.00,South,176,4.0,24.0,92,0.03,,,1.49,125.000000,,2013-04-28 19:52:00,
2013-04-28 16:02:00,57.0,55.0,-100.00,South,176,4.0,24.0,92,0.03,,,1.49,125.000000,,2013-04-28 20:02:00,
2013-04-28 16:33:00,58.0,57.0,-100.00,NW,312,2.0,10.0,95,0.01,,,1.39,105.000000,,2013-04-28 20:33:00,
2013-04-28 16:42:00,58.0,57.0,-100.00,NW,312,2.0,10.0,95,0.01,,,1.39,105.000000,,2013-04-28 20:42:00,
2013-04-28 16:52:00,58.0,57.0,-100.00,NW,312,2.0,10.0,95,0.01,,,1.39,105.000000,,2013-04-28 20:52:00,
2013-04-28 17:01:00,58.0,57.0,-100.00,NW,312,2.0,10.0,95,0.01,,,1.39,105.000000,,2013-04-28 21:01:00,
2013-04-28 17:33:00,58.0,56.0,-100.00,ESE,117,3.0,5.0,92,0.00,,,1.39,116.000000,,2013-04-28 21:33:00,
2013-04-28 17:42:00,58.0,56.0,-100.00,ESE,117,3.0,5.0,92,0.00,,,1.39,116.000000,,2013-04-28 21:42:00,
2013-04-28 17:53:00,58.0,56.0,-100.00,ESE,117,3.0,5.0,92,0.00,,,1.39,116.000000,,2013-04-28 21:53:00,
2013-04-28 18:03:00,58.0,56.0,-100.00,ESE,117,3.0,5.0,92,0.00,,,1.39,116.000000,,2013-04-28 22:03:00,
2013-04-28 18:34:00,58.0,57.0,-100.00,ENE,68,2.0,11.0,95,0.00,,,1.39,70.000000,,2013-04-28 22:34:00,
2013-04-28 18:42:00,58.0,57.0,-100.00,ENE,68,2.0,11.0,95,0.00,,,1.39,70.000000,,2013-04-28 22:42:00,
2013-04-28 18:52:00,58.0,57.0,-100.00,ENE,68,2.0,11.0,95,0.00,,,1.39,70.000000,,2013-04-28 22:52:00,
2013-04-28 19:02:00,58.0,57.0,-100.00,ENE,68,2.0,11.0,95,0.00,,,1.39,70.000000,,2013-04-28 23:02:00,
2013-04-28 19:32:00,57.0,56.0,-100.00,ENE,78,1.0,4.0,98,0.00,,,1.39,42.000000,,2013-04-28 23:32:00,
2013-04-28 19:42:00,57.0,56.0,-100.00,ENE,78,1.0,4.0,98,0.00,,,1.39,42.000000,,2013-04-28 23:42:00,
2013-04-28 19:52:00,57.0,56.0,-100.00,ENE,78,1.0,4.0,98,0.00,,,1.39,42.000000,,2013-04-28 23:52:00,
2013-04-28 20:01:00,57.0,56.0,-100.00,ENE,78,1.0,4.0,98,0.00,,,1.39,42.000000,,2013-04-29 00:01:00,
2013-04-28 21:32:00,55.0,55.0,-100.00,NW,308,0.0,3.0,100,-99.99,,,1.37,2.000000,,2013-04-29 01:32:00,
2013-04-28 21:42:00,55.0,55.0,-100.00,NW,308,0.0,3.0,100,-99.99,,,1.37,2.000000,,2013-04-29 01:42:00,
2013-04-28 21:52:00,55.0,55.0,-100.00,NW,308,0.0,3.0,100,-99.99,,,1.37,2.000000,,2013-04-29 01:52:00,
2013-04-28 22:02:00,55.0,55.0,-100.00,NW,308,0.0,3.0,100,-99.99,,,1.37,2.000000,,2013-04-29 02:02:00,
2013-04-28 22:32:00,54.0,54.0,-100.00,ENE,70,0.0,2.0,100,0.00,,,1.37,0.000000,,2013-04-29 02:32:00,
2013-04-28 22:42:00,54.0,54.0,-100.00,ENE,70,0.0,2.0,100,0.00,,,1.37,0.000000,,2013-04-29 02:42:00,
2013-04-28 22:52:00,54.0,54.0,-100.00,ENE,70,0.0,2.0,100,0.00,,,1.37,0.000000,,2013-04-29 02:52:00,
2013-04-28 23:01:00,54.0,54.0,-100.00,ENE,70,0.0,2.0,100,0.00,,,1.37,0.000000,,2013-04-29 03:01:00,
2013-04-28 23:33:00,54.0,54.0,-100.00,South,169,0.0,2.0,100,0.00,,,1.34,0.000000,,2013-04-29 03:33:00,
2013-04-28 23:43:00,54.0,54.0,-100.00,South,169,0.0,2.0,100,0.00,,,1.34,0.000000,,2013-04-29 03:43:00,
2013-04-28 23:53:00,54.0,54.0,-100.00,South,169,0.0,2.0,100,0.00,,,1.34,0.000000,,2013-04-29 03:53:00,